EW2649 Weather Reports


Display with metric or nautical units.
time (UTC)temp
F
wind
direction
speed
MPH
gust
MPH
rain 1hr
in
rain 24hr
in
rain mn
in
humidity
%
barometer
mb
20260508091544 47 180 0.0 2.0 0.00 0.00 0.00 91 1014.7
20260508090132 47 181 0.0 2.0 0.00 0.00 0.00 91 1014.7
20260508084554 47 181 1.0 3.0 0.00 0.00 0.00 91 1014.7
20260508083012 47 180 2.0 4.0 0.00 0.00 0.00 91 1014.8
20260508081651 47 169 2.0 5.0 0.00 0.00 0.00 90 1014.8
20260508080046 48 182 2.0 6.0 0.00 0.00 0.00 91 1014.9
20260508074518 48 165 4.0 5.0 0.00 0.00 0.00 90 1014.8
20260508073130 47 181 3.0 5.0 0.00 0.00 0.00 90 1014.7
20260508071557 48 178 2.0 4.0 0.00 0.00 0.00 90 1014.7
20260508070010 48 178 1.0 2.0 0.00 0.00 0.00 90 1014.6
20260508064530 48 178 1.0 2.0 0.00 0.00 0.00 89 1014.6
20260508063128 49 179 1.0 2.0 0.00 0.00 0.00 89 1014.7
20260508061534 49 178 0.0 1.0 0.00 0.00 0.00 88 1014.6
20260508060127 50 179 0.0 1.0 0.00 0.00 0.00 88 1014.5
20260508054543 51 178 0.0 1.0 0.00 0.00 0.00 88 1014.3
20260508053005 52 178 0.0 1.0 0.00 0.00 0.00 87 1014.3
20260508051556 52 178 1.0 3.0 0.00 0.00 0.00 86 1014.2
20260508050008 53 141 1.0 4.0 0.00 0.00 0.00 85 1014.2
20260508044602 54 150 3.0 6.0 0.00 0.00 0.00 85 1014.0
20260508043023 54 184 4.0 7.0 0.00 0.00 0.00 84 1013.9
20260508041615 55 193 2.0 7.0 0.00 0.00 0.00 83 1013.7
20260508040042 55 137 4.0 8.0 0.00 0.00 0.00 83 1013.4
20260508034626 55 193 4.0 8.0 0.00 0.00 0.00 83 1013.2
20260508033047 56 180 3.0 5.0 0.00 0.00 0.00 83 1013.0
20260508031506 57 195 4.0 6.0 0.00 0.00 0.00 82 1012.7
20260508030100 58 162 2.0 6.0 0.00 0.00 0.00 81 1012.6
20260508024530 60 206 2.0 6.0 0.00 0.00 0.00 78 1012.5
20260508023110 62 194 2.0 5.0 0.00 0.00 0.00 74 1012.3
20260508021529 64 209 2.0 6.0 0.00 0.00 0.00 71 1012.3
20260508020125 65 131 2.0 7.0 0.00 0.00 0.00 68 1012.2
20260508014545 66 150 1.0 6.0 0.00 0.00 0.00 68 1012.2
20260508013002 67 91 2.0 7.0 0.00 0.00 0.00 68 1012.0
20260508011601 68 133 3.0 7.0 0.00 0.00 0.00 69 1012.0
20260508010031 68 200 5.0 10.0 0.00 0.00 0.00 68 1012.0
20260508004610 70 192 4.0 9.0 0.00 0.00 0.00 66 1012.0
20260508003030 71 224 4.0 8.0 0.00 0.00 0.00 66 1012.1
20260508001624 72 115 1.0 4.0 0.00 0.00 0.00 65 1012.1
20260508000050 72 36 1.0 6.0 0.00 0.00 0.00 64 1012.1
20260507234504 72 41 1.0 5.0 0.00 0.00 0.00 64 1012.2
20260507233100 73 38 2.0 5.0 0.00 0.00 0.00 63 1012.3
20260507231522 73 5 2.0 5.0 0.00 0.00 0.00 65 1012.4
20260507230110 72 52 1.0 7.0 0.00 0.00 0.00 65 1012.4
20260507224531 73 81 3.0 9.0 0.00 0.00 0.00 64 1012.6
20260507223123 72 20 1.0 8.0 0.00 0.00 0.00 66 1012.6
20260507221540 72 38 2.0 5.0 0.00 0.00 0.00 65 1012.8
20260507220131 71 60 2.0 8.0 0.00 0.00 0.00 68 1013.0
20260507214600 71 22 3.0 9.0 0.00 0.00 0.00 66 1013.2
20260507213007 71 30 3.0 9.0 0.00 0.00 0.00 66 1013.4
20260507211610 71 13 2.0 6.0 0.00 0.00 0.00 68 1013.5
20260507210018 71 44 2.0 8.0 0.00 0.00 0.00 68 1013.6
20260507204607 70 360 1.0 8.0 0.00 0.00 0.00 69 1013.6
20260507203038 70 26 3.0 8.0 0.00 0.00 0.00 68 1013.9
20260507201621 70 42 3.0 9.0 0.00 0.00 0.00 68 1014.1
20260507200053 69 17 2.0 5.0 0.00 0.00 0.00 72 1014.1
20260507194623 68 9 2.0 5.0 0.00 0.00 0.00 75 1014.2
20260507193022 67 334 1.0 5.0 0.00 0.00 0.00 75 1014.4
20260507191609 66 24 2.0 5.0 0.00 0.00 0.00 77 1014.7
20260507190032 64 136 1.0 6.0 0.00 0.00 0.00 77 1014.8
20260507184550 64 30 1.0 5.0 0.00 0.00 0.00 79 1015.0
20260507183046 63 129 2.0 7.0 0.00 0.00 0.00 80 1015.1
20260507181537 62 40 1.0 5.0 0.00 0.00 0.00 84 1015.1
20260507180037 61 45 1.0 5.0 0.00 0.00 0.00 84 1015.2
20260507174528 59 74 2.0 4.0 0.00 0.00 0.00 87 1015.3
20260507173030 58 138 2.0 6.0 0.00 0.00 0.00 87 1015.3
20260507171518 57 153 0.0 4.0 0.00 0.00 0.00 88 1015.3
20260507170016 57 114 2.0 4.0 0.00 0.00 0.00 88 1015.3
20260507164511 57 97 1.0 3.0 0.00 0.00 0.00 90 1015.2
20260507163010 56 59 2.0 7.0 0.00 0.00 0.00 89 1015.2
20260507161503 56 180 1.0 4.0 0.00 0.00 0.00 90 1015.3
20260507160100 56 84 0.0 3.0 0.00 0.00 0.00 89 1015.3
20260507154559 55 116 2.0 3.0 0.00 0.00 0.00 90 1015.3
20260507153049 55 92 1.0 3.0 0.00 0.00 0.00 90 1015.3
20260507151546 55 82 1.0 3.0 0.00 0.00 0.00 90 1015.2
20260507150043 55 89 0.0 2.0 0.00 0.00 0.00 90 1015.2
20260507144539 55 88 0.0 2.0 0.00 0.00 0.00 90 1015.3
20260507143038 54 89 0.0 2.0 0.00 0.00 0.00 90 1015.3
20260507141534 54 104 0.0 2.0 0.00 0.00 0.00 90 1015.2
20260507140032 54 106 0.0 2.0 0.00 0.00 0.00 90 1015.0
20260507134532 54 115 1.0 2.0 0.00 0.00 0.00 90 1014.9
20260507133029 54 128 0.0 2.0 0.00 0.00 0.00 90 1014.9
20260507131534 54 130 0.0 1.0 0.00 0.00 0.00 90 1014.8
20260507130027 55 223 0.0 1.0 0.00 0.00 0.00 90 1014.7
20260507124531 55 223 0.0 1.0 0.00 0.00 0.00 90 1014.6
20260507123028 55 223 0.0 2.0 0.00 0.00 0.00 90 1014.6
20260507121525 55 223 1.0 4.0 0.00 0.00 0.00 90 1014.7
20260507120027 55 223 1.0 3.0 0.00 0.00 0.00 90 1014.7
20260507114522 55 223 0.0 3.0 0.00 0.00 0.00 90 1014.9
20260507113023 54 223 0.0 2.0 0.00 0.00 0.00 90 1014.9
20260507111521 54 223 1.0 2.0 0.00 0.00 0.00 90 1014.9
20260507110021 54 211 1.0 4.0 0.00 0.00 0.00 90 1014.9
20260507104520 55 219 3.0 4.0 0.00 0.00 0.00 90 1015.0
20260507103019 55 192 1.0 3.0 0.00 0.00 0.00 90 1015.0
20260507101519 55 191 0.0 3.0 0.00 0.00 0.00 90 1015.0
20260507100017 55 190 0.0 2.0 0.00 0.00 0.00 90 1014.8
20260507094515 55 190 1.0 3.0 0.00 0.00 0.00 90 1014.9